SCP
0 0 0 0 0 0 0 0 0 0 0 0 -0 -0 0 -0 -0 0 0 0 0 0 0 0 0 0 0 0 0 -0 -0 -0 -0 -0 0 0 0 0 -0 -0 -0 -0 0 -0 -0 -0 -0 -0 -0
0 0 0 0 0 0 0 0 0 0 0 0 -0 -0 -0 -0 0 0 0 0 0 0 0 0 0 0 0 0 0 0 -0 -0 -0 -0 0 0 0 -0 -0 -0 -0 -0 -0 -0 -0 -0 -0 -0 -0
0 0 0 0 0 -0 0 0 0 0 0 0 0 0 0 -0 0 0 0 -0 -0 0 0 0 0 0 0 0 0 -0 -0 -0 -0 0 -0 -0 0 0 -0 -0 -0 -0 -0 -0 -0 -0 -0 -0 -0
0 0 0 0 0 0 0 0 0 0 0 0 0 0 0 0 0 0 -0 -0 -0 0 0 0 0 0 0 0 -0 -0 0 0 -0 0 -0 -0 -0 -0 -0 -0 -0 -0 -0 -0 -0 -0 -0 -0 -0
0 0 0 0 0 0 0 0 0 0 0 0 0 0 0 0 0 -0 -0 -0 -0 0 0 0 0 0 0 0 0 0 0 0 0 0 0 -0 -0 -0 -0 -0 -0 -0 0 -0 -0 -0 -0 -0 -0
0 0 0 0 0 0 0 0 0 0 0 0 0 0 0 0 0 0 -0 -0 -0 0 0 0 0 0 0 0 0 0 0 0 0 0 -0 -0 0 0 0 0 0 0 0 0 0 0 0 -0 0
0 0 0 0 0 0 0 0 0 0 0 0 0 0 0 0 0 0 0 -0 -0 0 0 0 0 0 0 0 0 0 0 0 0 0 0 -0 0 0 0 0 0 0 0 0 0 0 0 0 0
0 0 0 0 0 0 0 0 0 0 0 0 0 0 0 0 0 0 0 0 -0 0 0 0 0 0 0 0 0 0 0 0 0 0 0 0 0 0 0 0 0 0 0 0 0 0 0 0 0
0 0 0 0 0 0 0 0 0 0 0 0 0 0 0 0 0 0 0 0 0 0 0 0 0 0 0 0 0 0 0 0 0 0 0 0 0 0 0 0 0 0 0 0 0 0 0 0 0
0 0 0 0 0 0 0 0 0 0 0 0 0 0 0 0 0 0 0 0 0 0 0 0 0 0 0 0 0 0 0 0 0 0 0 0 0 0 0 0 0 0 0 0 0 0 0 0 0
0 0 0 0 0 0 0 0 0 0 0 0 0 0 0 0 0 0 0 0 0 0 0 0 0 0 0 0 0 0 0 0 0 0 0 0 0 0 0 0 0 0 0 0 0 0 0 0 0
0 0 0 0 0 0 0 0 0 0 0 0 0 0 0 0 0 0 0 0 0 0 0 0 0 0 0 0 0 0 0 0 0 0 0 0 0 0 0 0 0 0 0 0 0 0 0 0 0
0 0 0 0 0 0 0 0 0 0 0 0 0 0 0 0 0 0 0 0 0 0 0 0 0 0 0 0 0 0 0 0 0 0 0 0 0 0 0 0 0 0 0 0 0 0 0 0 0
0 0 0 0 0 0 0 0 0 0 0 0 0 0 0 0 0 0 0 0 0 0 0 0 0 0 0 0 0 0 0 0 0 0 0 0 0 0 0 0 0 0 0 0 0 0 0 0 0
0 0 0 0 0 0 0 0 0 0 0 0 0 0 0 0 0 0 0 0 0 0 0 0 0 0 0 0 0 0 0 0 0 0 0 0 0 0 0 0 0 0 0 0 0 0 0 0 0
0 0 0 0 0 0 0 0 0 0 0 0 0 0 0 0 0 0 0 0 0 0 0 0 0 0 0 0 0 0 0 0 0 0 0 0 0 0 0 0 0 0 0 0 0 0 0 0 0
0 0 0 0 0 0 0 0 0 0 0 0 0 0 0 0 0 0 0 0 0 0 0 0 0 0 0 0 0 0 0 0 0 0 0 0 0 0 0 0 0 0 0 0 0 0 0 0 0
0 0 0 0 0 0 0 0 0 0 0 0 0 0 0 0 0 0 0 0 0 0 0 0 0 0 0 0 0 0 0 0 0 0 0 0 0 0 0 0 0 0 0 0 0 0 0 0 0
0 0 0 0 0 0 0 0 0 0 0 0 0 0 0 0 0 0 0 0 0 0 0 0 0 0 0 0 0 1 0 0 0 0 0 0 0 0 0 0 0 0 0 0 0 0 0 0 0
0 0 0 0 0 0 0 0 0 0 0 0 0 0 0 0 0 0 0 0 0 0 0 0 0 0 0 0 0 0 0 0 0 0 0 0 0 0 0 0 0 0 0 0 0 0 0 0 0
0 0 0 0 0 0 0 0 0 0 0 0 0 0 0 0 0 0 0 0 0 0 0 0 0 0 0 0 0 0 0 0 0 0 0 0 0 0 0 0 0 0 0 0 0 0 0 0 0
0 0 0 0 0 0 0 0 0 0 0 0 0 0 0 0 0 0 0 0 0 0 0 0 0 0 0 0 0 0 0 0 0 0 0 0 0 0 0 0 0 0 0 0 0 0 0 0 0
0 0 0 0 0 0 0 0 0 0 0 0 0 0 0 0 0 0 0 0 0 0 0 0 0 0 0 0 0 0 0 0 0 0 0 0 0 0 0 0 0 0 0 0 0 0 0 0 0
0 0 0 0 0 0 0 0 0 0 0 0 0 0 0 0 0 0 0 0 0 0 0 0 0 0 0 0 0 0 0 0 0 0 0 0 0 0 0 0 0 0 0 0 0 0 0 0 0
0 0 0 0 0 0 0 0 0 0 0 0 0 0 0 0 0 0 0 0 0 0 0 0 0 0 0 0 0 0 0 0 0 0 0 0 0 0 0 0 0 0 0 0 0 0 0 0 0
0 0 0 0 0 0 0 0 0 0 0 0 0 0 0 0 0 0 0 0 0 0 0 0 0 0 0 0 0 0 0 0 0 0 1 1 0 0 0 0 0 0 0 0 0 0 0 0 0
0 0 0 0 0 0 0 0 0 0 0 0 0 0 0 0 0 0 0 0 0 0 0 0 0 0 0 0 0 0 0 0 0 0 1 1 0 0 0 0 0 0 0 0 0 0 0 0 0
0 0 0 0 0 0 0 0 0 0 0 0 0 0 0 0 0 0 0 0 0 0 0 0 0 0 0 0 0 0 0 0 0 0 0 1 1 1 0 0 0 0 0 0 0 0 0 0 0
0 0 0 0 0 0 0 0 0 0 0 0 0 0 0 0 0 0 0 0 0 0 0 0 0 0 0 0 0 0 0 0 0 0 0 0 1 1 0 0 0 0 0 0 0 0 0 0 0
0 0 0 0 0 0 0 0 0 0 0 0 0 0 -0 0 0 0 0 0 0 0 0 0 0 0 0 0 0 0 0 0 0 0 0 0 0 0 0 0 0 0 0 0 0 0 0 0 0
Wind_Speed_500mb
15 9 9 11 13 13 24 17 12 11 12 10 13 9 22 30 15 6 9 18 33 52 63 58 48 44 36 27 20 13 10 25 28 33 34 38 38 38 41 39 28 32 38 35 41 43 41 38 37
15 8 10 21 14 22 17 18 20 16 14 15 13 7 8 8 5 3 12 37 38 48 53 54 48 46 36 27 17 11 14 31 35 34 30 32 33 33 30 30 38 48 47 45 44 39 35 32 27
12 12 20 10 23 24 14 12 19 14 10 20 14 5 5 11 8 12 9 36 46 44 40 48 49 47 32 23 19 13 23 33 40 33 28 25 27 33 32 34 38 38 38 33 31 26 19 17 19
7 14 17 18 25 22 13 9 12 16 13 14 7 11 10 9 9 9 25 39 42 43 46 49 50 45 31 23 19 16 28 37 36 31 26 21 32 38 37 42 35 28 25 22 22 19 14 12 17
13 19 20 25 32 21 12 4 7 19 24 21 18 14 10 5 9 15 32 43 40 43 46 48 51 44 31 26 21 19 30 37 36 31 28 31 38 41 45 38 30 24 22 17 14 13 13 15 19
22 19 20 28 27 13 14 20 15 15 18 20 16 17 12 11 14 21 31 41 37 41 45 50 50 40 31 24 20 21 33 35 35 32 30 38 41 42 39 33 27 20 15 11 10 8 10 18 25
27 20 28 29 19 13 17 22 21 20 20 21 7 19 13 16 20 25 31 39 36 41 46 48 49 40 31 24 21 22 31 37 37 32 33 39 38 34 31 27 22 18 14 11 13 14 13 19 27
21 18 35 22 22 25 10 17 18 26 17 7 6 11 21 23 23 27 28 36 36 45 46 46 45 42 37 30 24 23 27 40 42 37 36 32 30 28 24 23 19 15 14 13 13 14 12 20 29
11 19 26 32 24 19 9 16 12 5 12 9 8 6 16 26 27 26 31 37 38 44 46 47 46 43 38 34 31 27 28 46 47 40 35 34 30 26 27 25 24 22 21 17 15 15 25 21 28
19 23 35 28 13 16 8 14 14 14 20 19 16 10 16 23 28 30 31 37 43 45 46 49 48 46 42 36 35 33 32 46 49 44 43 36 32 29 24 26 26 26 22 22 16 20 26 22 23
19 34 28 14 16 14 11 12 10 18 15 25 26 22 18 18 23 27 30 32 38 39 48 44 52 51 47 41 39 36 32 35 47 44 43 42 39 36 26 33 28 28 28 29 24 27 27 28 25
22 29 35 21 6 13 17 16 16 20 9 15 8 11 15 18 23 25 26 30 37 39 40 54 44 48 51 45 46 40 38 37 36 46 45 47 44 37 31 35 38 36 32 31 29 27 27 29 28
27 32 15 32 16 19 16 25 30 34 31 21 14 11 13 15 19 21 23 26 31 38 41 46 53 57 51 53 50 48 41 41 39 44 47 48 44 43 30 41 42 41 38 40 31 29 31 23 31
15 16 22 24 28 17 20 34 38 28 41 41 33 25 24 25 26 23 24 28 32 33 40 42 52 53 62 57 46 52 51 52 44 43 46 47 40 41 42 36 39 46 43 39 35 33 34 27 30
19 21 29 33 27 25 17 38 44 39 45 39 37 38 36 34 32 32 31 30 32 35 35 42 45 52 58 63 63 54 51 54 53 49 44 46 46 42 40 43 40 45 49 44 42 40 39 36 32
13 29 33 36 37 30 16 48 32 44 49 54 54 47 44 40 34 33 32 32 33 35 38 38 42 50 56 58 67 69 67 58 60 55 52 46 49 44 44 43 42 38 51 53 50 46 44 39 38
27 37 49 43 31 25 32 39 29 35 42 37 33 37 38 30 30 29 34 38 38 39 42 43 45 47 52 64 65 67 69 67 64 64 63 57 49 50 49 50 44 43 41 54 57 48 47 45 38
33 38 37 37 33 16 40 45 36 38 19 25 34 37 31 33 32 28 28 28 35 42 43 47 49 50 50 57 58 68 71 69 70 74 72 65 61 58 54 52 51 48 49 44 42 48 48 39 41
30 34 33 29 7 12 30 39 37 41 45 42 43 46 47 47 40 39 38 36 37 37 40 50 51 52 55 59 64 68 79 79 73 76 76 76 72 68 65 61 56 54 53 51 49 50 47 46 40
25 32 40 37 36 20 34 49 44 43 47 55 57 60 60 55 50 46 47 46 45 41 40 41 45 52 58 60 65 72 72 84 86 84 81 81 75 79 77 73 70 62 55 54 53 53 53 55 51
28 29 29 30 21 28 33 50 47 47 63 67 66 65 63 60 58 54 48 45 43 41 42 49 49 48 54 60 62 65 66 65 76 87 86 83 83 83 85 84 79 70 69 66 61 59 64 60 62
32 29 23 24 24 23 4 20 29 8 12 18 29 32 38 41 35 27 26 31 31 28 33 45 52 55 60 58 65 69 78 78 78 82 92 94 89 90 87 89 88 82 78 78 74 66 63 63 70
25 13 18 25 28 30 37 24 23 33 28 22 22 22 7 1 4 8 6 6 10 13 22 29 41 55 66 70 73 69 78 82 77 80 85 92 93 91 93 92 93 93 92 87 85 79 76 70 70
21 19 26 24 20 20 35 31 25 25 25 13 3 15 8 4 4 4 3 4 4 6 9 15 23 35 51 66 71 77 75 82 82 87 87 86 92 99 94 93 95 98 97 97 96 90 86 80 74
17 18 13 13 17 22 29 24 30 13 5 5 4 8 9 8 6 8 10 10 10 10 9 10 14 21 30 45 65 66 74 79 87 90 94 92 97 97 101 98 101 102 104 102 99 103 99 93 90
16 14 12 14 13 12 16 12 13 16 17 13 12 9 10 13 14 14 15 15 15 15 14 15 16 19 22 28 41 60 68 72 82 85 90 96 99 104 99 103 108 107 106 106 107 109 108 104 101
9 14 13 16 27 21 17 18 19 16 14 21 20 14 12 15 21 22 20 19 18 17 18 18 19 21 23 25 29 39 55 78 77 81 81 93 95 93 96 95 94 104 107 103 105 111 112 112 109
28 18 17 14 19 28 28 35 24 19 16 11 12 4 9 17 25 30 29 26 24 23 23 23 20 24 25 26 28 30 37 53 76 89 84 83 89 87 87 92 93 92 101 101 100 104 108 112 112
15 18 20 16 19 22 27 24 6 9 8 5 17 29 26 22 27 32 31 32 29 27 25 27 26 26 27 28 29 31 32 37 50 67 81 89 88 86 84 92 91 92 97 86 99 103 102 105 107
26 36 33 20 22 25 26 31 35 31 36 37 25 37 30 30 42 44 39 35 32 29 26 26 27 28 30 31 30 29 30 30 34 49 63 73 83 83 91 92 96 97 97 90 94 96 97 101 101
Wind_Direction_500mb
231 262 257 238 235 234 248 225 249 197 185 118 132 157 182 127 150 177 169 155 160 166 170 174 170 173 164 161 151 147 164 161 158 150 144 136 135 130 131 127 128 151 138 123 126 137 130 132 128
225 241 231 248 249 229 236 212 193 197 79 144 133 136 180 119 86 129 125 153 156 158 170 175 175 176 168 163 149 137 141 158 159 150 149 151 149 148 142 127 127 121 128 123 118 123 120 126 128
220 208 235 224 233 253 253 183 207 133 158 172 149 211 138 98 95 151 180 161 154 162 169 177 178 177 168 163 150 131 148 156 156 158 164 163 168 161 155 148 138 134 128 131 131 127 128 118 136
217 212 248 244 238 246 282 211 223 170 171 183 202 156 108 123 126 160 163 153 158 162 175 183 179 176 171 165 151 141 156 162 161 163 164 158 158 166 160 154 152 148 145 146 145 145 149 145 157
208 237 239 229 247 242 249 234 206 218 182 187 187 137 113 119 154 154 158 156 171 166 181 177 177 178 173 166 156 152 160 164 167 172 169 155 148 152 157 159 159 155 152 152 171 172 174 179 178
220 244 240 235 233 233 218 211 209 224 200 173 199 162 118 155 141 155 162 160 176 172 179 177 179 181 179 172 166 162 166 168 169 174 177 164 157 156 161 165 168 174 182 197 211 219 246 211 192
246 218 243 252 255 225 229 205 211 212 197 194 236 204 119 139 149 150 156 163 183 174 182 181 181 186 183 180 177 174 174 173 174 174 173 176 173 175 177 180 188 195 197 219 250 257 228 245 191
254 259 251 243 241 241 164 202 227 230 214 107 185 222 165 159 153 149 154 165 185 185 186 188 189 190 187 185 185 183 179 181 177 180 177 178 180 183 188 191 195 214 231 232 242 226 224 204 187
250 243 240 231 233 247 158 215 190 229 229 199 171 51 122 153 155 154 156 168 180 189 190 190 195 198 197 191 189 184 184 188 186 184 187 192 197 199 206 215 226 233 239 234 210 223 206 190 189
230 234 243 256 270 257 217 236 192 214 201 198 176 115 137 156 164 167 173 177 183 193 194 198 196 200 200 203 196 191 184 187 191 193 195 195 205 214 224 231 226 230 225 210 226 207 197 194 190
235 243 252 249 265 274 267 228 214 231 210 223 206 168 163 171 178 184 184 189 191 192 200 199 201 209 201 207 207 191 195 187 197 197 203 199 202 216 214 220 205 197 204 211 212 199 199 186 171
250 244 263 268 254 250 242 257 246 228 189 85 102 144 171 185 191 194 196 196 193 197 202 205 205 208 202 208 209 200 198 197 194 202 207 205 208 217 212 199 195 196 202 213 210 203 199 197 190
240 255 256 258 262 260 255 245 253 254 245 246 232 231 203 205 210 205 205 207 205 201 200 216 205 210 204 217 216 211 197 204 198 207 208 207 209 216 210 192 200 205 212 220 219 203 196 195 186
345 283 252 253 260 252 254 247 242 243 248 253 245 240 234 230 224 217 212 211 213 212 208 211 207 213 205 210 215 214 212 208 207 209 205 203 206 212 201 196 212 208 212 216 210 210 202 198 194
274 269 252 237 247 257 264 252 240 240 252 246 247 243 241 235 231 228 228 226 220 219 219 212 217 210 215 212 215 216 220 217 218 218 216 211 205 205 206 203 210 218 211 214 214 218 216 212 207
260 254 260 240 230 227 221 261 255 233 237 245 242 243 243 237 235 236 233 229 227 223 220 220 220 220 214 215 227 221 229 226 225 226 224 221 211 210 210 205 207 217 216 218 220 220 218 215 219
244 259 259 254 218 224 219 267 259 268 229 238 241 239 240 240 238 233 234 234 231 229 228 224 222 223 220 220 224 226 231 228 228 229 228 226 225 222 214 209 210 212 222 218 220 217 217 220 212
244 243 246 260 259 244 252 258 261 262 255 249 254 245 225 236 241 237 236 235 236 234 231 229 227 225 226 224 225 226 234 235 230 231 232 229 226 225 225 220 211 206 213 216 216 218 213 212 214
293 288 274 282 341 296 270 273 267 263 258 254 258 253 251 249 249 248 248 245 239 241 236 231 228 226 225 225 226 225 226 232 232 232 233 228 227 226 226 224 229 222 224 220 216 212 212 210 212
265 263 262 268 272 301 278 271 271 265 260 260 258 258 258 260 256 251 250 249 242 238 239 239 232 229 228 227 228 231 233 232 237 237 234 239 231 228 229 225 225 228 234 231 227 221 214 217 212
254 258 271 271 264 250 273 274 263 252 247 249 254 255 258 259 259 257 252 247 245 246 243 240 235 231 229 228 233 235 232 239 235 236 236 231 240 232 230 230 229 229 228 231 239 235 227 224 221
268 274 292 272 265 263 228 282 298 283 232 239 251 246 245 248 246 249 252 246 243 245 239 236 237 237 232 225 227 232 232 230 231 234 233 236 236 240 233 232 232 232 232 231 233 234 242 233 232
281 356 287 278 274 273 262 263 281 249 256 262 262 248 206 14 190 189 203 214 236 250 243 242 239 236 234 235 227 228 231 232 234 236 237 235 239 237 240 236 234 234 234 235 234 234 231 235 238
271 282 265 248 248 247 246 237 263 253 261 299 193 39 112 117 105 73 14 1 319 295 269 257 248 244 240 234 232 228 230 233 232 233 235 238 238 237 238 240 239 237 236 236 237 236 236 235 237
239 255 268 227 221 247 246 238 239 195 151 97 53 105 88 84 58 25 10 358 348 331 310 294 276 267 257 247 236 229 231 231 233 229 233 236 237 237 239 239 239 239 237 236 238 238 237 236 236
298 283 283 298 276 301 358 224 261 49 60 51 124 120 99 63 33 16 359 349 341 337 325 309 307 297 280 270 255 243 230 234 233 234 230 234 238 242 240 240 241 241 238 237 238 239 240 239 238
2 251 333 303 285 269 261 260 260 148 142 131 129 121 78 46 23 5 350 338 333 328 323 320 310 311 304 286 275 261 248 235 235 234 233 231 233 236 244 239 236 241 242 240 240 240 240 241 240
246 323 286 236 268 268 269 269 271 167 169 153 140 87 346 338 342 340 335 328 320 315 316 315 310 307 310 303 290 279 265 254 241 235 235 235 233 232 236 239 235 232 239 241 240 240 242 243 243
235 241 236 271 275 283 275 267 349 78 121 255 299 304 297 296 313 318 311 309 300 300 300 304 307 306 303 307 304 294 284 268 250 241 238 235 236 233 234 238 236 233 234 245 242 240 241 245 245
269 274 264 249 263 242 253 261 288 289 289 285 297 286 281 282 304 309 302 298 285 283 284 293 297 300 300 303 307 307 297 290 266 246 244 242 237 236 238 237 238 236 239 244 245 240 243 244 246
Wind_Speed_850mb
15 9 9 11 13 13 24 17 12 11 12 10 13 9 22 30 15 6 9 18 33 52 63 58 48 44 36 27 20 13 10 25 28 33 34 38 38 38 41 39 28 32 38 35 41 43 41 38 37
15 8 10 21 14 22 17 18 20 16 14 15 13 7 8 8 5 3 12 37 38 48 53 54 48 46 36 27 17 11 14 31 35 34 30 32 33 33 30 30 38 48 47 45 44 39 35 32 27
12 12 20 10 23 24 14 12 19 14 10 20 14 5 5 11 8 12 9 36 46 44 40 48 49 47 32 23 19 13 23 33 40 33 28 25 27 33 32 34 38 38 38 33 31 26 19 17 19
7 14 17 18 25 22 13 9 12 16 13 14 7 11 10 9 9 9 25 39 42 43 46 49 50 45 31 23 19 16 28 37 36 31 26 21 32 38 37 42 35 28 25 22 22 19 14 12 17
13 19 20 25 32 21 12 4 7 19 24 21 18 14 10 5 9 15 32 43 40 43 46 48 51 44 31 26 21 19 30 37 36 31 28 31 38 41 45 38 30 24 22 17 14 13 13 15 19
22 19 20 28 27 13 14 20 15 15 18 20 16 17 12 11 14 21 31 41 37 41 45 50 50 40 31 24 20 21 33 35 35 32 30 38 41 42 39 33 27 20 15 11 10 8 10 18 25
27 20 28 29 19 13 17 22 21 20 20 21 7 19 13 16 20 25 31 39 36 41 46 48 49 40 31 24 21 22 31 37 37 32 33 39 38 34 31 27 22 18 14 11 13 14 13 19 27
21 18 35 22 22 25 10 17 18 26 17 7 6 11 21 23 23 27 28 36 36 45 46 46 45 42 37 30 24 23 27 40 42 37 36 32 30 28 24 23 19 15 14 13 13 14 12 20 29
11 19 26 32 24 19 9 16 12 5 12 9 8 6 16 26 27 26 31 37 38 44 46 47 46 43 38 34 31 27 28 46 47 40 35 34 30 26 27 25 24 22 21 17 15 15 25 21 28
19 23 35 28 13 16 8 14 14 14 20 19 16 10 16 23 28 30 31 37 43 45 46 49 48 46 42 36 35 33 32 46 49 44 43 36 32 29 24 26 26 26 22 22 16 20 26 22 23
19 34 28 14 16 14 11 12 10 18 15 25 26 22 18 18 23 27 30 32 38 39 48 44 52 51 47 41 39 36 32 35 47 44 43 42 39 36 26 33 28 28 28 29 24 27 27 28 25
22 29 35 21 6 13 17 16 16 20 9 15 8 11 15 18 23 25 26 30 37 39 40 54 44 48 51 45 46 40 38 37 36 46 45 47 44 37 31 35 38 36 32 31 29 27 27 29 28
27 32 15 32 16 19 16 25 30 34 31 21 14 11 13 15 19 21 23 26 31 38 41 46 53 57 51 53 50 48 41 41 39 44 47 48 44 43 30 41 42 41 38 40 31 29 31 23 31
15 16 22 24 28 17 20 34 38 28 41 41 33 25 24 25 26 23 24 28 32 33 40 42 52 53 62 57 46 52 51 52 44 43 46 47 40 41 42 36 39 46 43 39 35 33 34 27 30
19 21 29 33 27 25 17 38 44 39 45 39 37 38 36 34 32 32 31 30 32 35 35 42 45 52 58 63 63 54 51 54 53 49 44 46 46 42 40 43 40 45 49 44 42 40 39 36 32
13 29 33 36 37 30 16 48 32 44 49 54 54 47 44 40 34 33 32 32 33 35 38 38 42 50 56 58 67 69 67 58 60 55 52 46 49 44 44 43 42 38 51 53 50 46 44 39 38
27 37 49 43 31 25 32 39 29 35 42 37 33 37 38 30 30 29 34 38 38 39 42 43 45 47 52 64 65 67 69 67 64 64 63 57 49 50 49 50 44 43 41 54 57 48 47 45 38
33 38 37 37 33 16 40 45 36 38 19 25 34 37 31 33 32 28 28 28 35 42 43 47 49 50 50 57 58 68 71 69 70 74 72 65 61 58 54 52 51 48 49 44 42 48 48 39 41
30 34 33 29 7 12 30 39 37 41 45 42 43 46 47 47 40 39 38 36 37 37 40 50 51 52 55 59 64 68 79 79 73 76 76 76 72 68 65 61 56 54 53 51 49 50 47 46 40
25 32 40 37 36 20 34 49 44 43 47 55 57 60 60 55 50 46 47 46 45 41 40 41 45 52 58 60 65 72 72 84 86 84 81 81 75 79 77 73 70 62 55 54 53 53 53 55 51
28 29 29 30 21 28 33 50 47 47 63 67 66 65 63 60 58 54 48 45 43 41 42 49 49 48 54 60 62 65 66 65 76 87 86 83 83 83 85 84 79 70 69 66 61 59 64 60 62
32 29 23 24 24 23 4 20 29 8 12 18 29 32 38 41 35 27 26 31 31 28 33 45 52 55 60 58 65 69 78 78 78 82 92 94 89 90 87 89 88 82 78 78 74 66 63 63 70
25 13 18 25 28 30 37 24 23 33 28 22 22 22 7 1 4 8 6 6 10 13 22 29 41 55 66 70 73 69 78 82 77 80 85 92 93 91 93 92 93 93 92 87 85 79 76 70 70
21 19 26 24 20 20 35 31 25 25 25 13 3 15 8 4 4 4 3 4 4 6 9 15 23 35 51 66 71 77 75 82 82 87 87 86 92 99 94 93 95 98 97 97 96 90 86 80 74
17 18 13 13 17 22 29 24 30 13 5 5 4 8 9 8 6 8 10 10 10 10 9 10 14 21 30 45 65 66 74 79 87 90 94 92 97 97 101 98 101 102 104 102 99 103 99 93 90
16 14 12 14 13 12 16 12 13 16 17 13 12 9 10 13 14 14 15 15 15 15 14 15 16 19 22 28 41 60 68 72 82 85 90 96 99 104 99 103 108 107 106 106 107 109 108 104 101
9 14 13 16 27 21 17 18 19 16 14 21 20 14 12 15 21 22 20 19 18 17 18 18 19 21 23 25 29 39 55 78 77 81 81 93 95 93 96 95 94 104 107 103 105 111 112 112 109
28 18 17 14 19 28 28 35 24 19 16 11 12 4 9 17 25 30 29 26 24 23 23 23 20 24 25 26 28 30 37 53 76 89 84 83 89 87 87 92 93 92 101 101 100 104 108 112 112
15 18 20 16 19 22 27 24 6 9 8 5 17 29 26 22 27 32 31 32 29 27 25 27 26 26 27 28 29 31 32 37 50 67 81 89 88 86 84 92 91 92 97 86 99 103 102 105 107
26 36 33 20 22 25 26 31 35 31 36 37 25 37 30 30 42 44 39 35 32 29 26 26 27 28 30 31 30 29 30 30 34 49 63 73 83 83 91 92 96 97 97 90 94 96 97 101 101
Wind_Direction_850mb
231 262 257 238 235 234 248 225 249 197 185 118 132 157 182 127 150 177 169 155 160 166 170 174 170 173 164 161 151 147 164 161 158 150 144 136 135 130 131 127 128 151 138 123 126 137 130 132 128
225 241 231 248 249 229 236 212 193 197 79 144 133 136 180 119 86 129 125 153 156 158 170 175 175 176 168 163 149 137 141 158 159 150 149 151 149 148 142 127 127 121 128 123 118 123 120 126 128
220 208 235 224 233 253 253 183 207 133 158 172 149 211 138 98 95 151 180 161 154 162 169 177 178 177 168 163 150 131 148 156 156 158 164 163 168 161 155 148 138 134 128 131 131 127 128 118 136
217 212 248 244 238 246 282 211 223 170 171 183 202 156 108 123 126 160 163 153 158 162 175 183 179 176 171 165 151 141 156 162 161 163 164 158 158 166 160 154 152 148 145 146 145 145 149 145 157
208 237 239 229 247 242 249 234 206 218 182 187 187 137 113 119 154 154 158 156 171 166 181 177 177 178 173 166 156 152 160 164 167 172 169 155 148 152 157 159 159 155 152 152 171 172 174 179 178
220 244 240 235 233 233 218 211 209 224 200 173 199 162 118 155 141 155 162 160 176 172 179 177 179 181 179 172 166 162 166 168 169 174 177 164 157 156 161 165 168 174 182 197 211 219 246 211 192
246 218 243 252 255 225 229 205 211 212 197 194 236 204 119 139 149 150 156 163 183 174 182 181 181 186 183 180 177 174 174 173 174 174 173 176 173 175 177 180 188 195 197 219 250 257 228 245 191
254 259 251 243 241 241 164 202 227 230 214 107 185 222 165 159 153 149 154 165 185 185 186 188 189 190 187 185 185 183 179 181 177 180 177 178 180 183 188 191 195 214 231 232 242 226 224 204 187
250 243 240 231 233 247 158 215 190 229 229 199 171 51 122 153 155 154 156 168 180 189 190 190 195 198 197 191 189 184 184 188 186 184 187 192 197 199 206 215 226 233 239 234 210 223 206 190 189
230 234 243 256 270 257 217 236 192 214 201 198 176 115 137 156 164 167 173 177 183 193 194 198 196 200 200 203 196 191 184 187 191 193 195 195 205 214 224 231 226 230 225 210 226 207 197 194 190
235 243 252 249 265 274 267 228 214 231 210 223 206 168 163 171 178 184 184 189 191 192 200 199 201 209 201 207 207 191 195 187 197 197 203 199 202 216 214 220 205 197 204 211 212 199 199 186 171
250 244 263 268 254 250 242 257 246 228 189 85 102 144 171 185 191 194 196 196 193 197 202 205 205 208 202 208 209 200 198 197 194 202 207 205 208 217 212 199 195 196 202 213 210 203 199 197 190
240 255 256 258 262 260 255 245 253 254 245 246 232 231 203 205 210 205 205 207 205 201 200 216 205 210 204 217 216 211 197 204 198 207 208 207 209 216 210 192 200 205 212 220 219 203 196 195 186
345 283 252 253 260 252 254 247 242 243 248 253 245 240 234 230 224 217 212 211 213 212 208 211 207 213 205 210 215 214 212 208 207 209 205 203 206 212 201 196 212 208 212 216 210 210 202 198 194
274 269 252 237 247 257 264 252 240 240 252 246 247 243 241 235 231 228 228 226 220 219 219 212 217 210 215 212 215 216 220 217 218 218 216 211 205 205 206 203 210 218 211 214 214 218 216 212 207
260 254 260 240 230 227 221 261 255 233 237 245 242 243 243 237 235 236 233 229 227 223 220 220 220 220 214 215 227 221 229 226 225 226 224 221 211 210 210 205 207 217 216 218 220 220 218 215 219
244 259 259 254 218 224 219 267 259 268 229 238 241 239 240 240 238 233 234 234 231 229 228 224 222 223 220 220 224 226 231 228 228 229 228 226 225 222 214 209 210 212 222 218 220 217 217 220 212
244 243 246 260 259 244 252 258 261 262 255 249 254 245 225 236 241 237 236 235 236 234 231 229 227 225 226 224 225 226 234 235 230 231 232 229 226 225 225 220 211 206 213 216 216 218 213 212 214
293 288 274 282 341 296 270 273 267 263 258 254 258 253 251 249 249 248 248 245 239 241 236 231 228 226 225 225 226 225 226 232 232 232 233 228 227 226 226 224 229 222 224 220 216 212 212 210 212
265 263 262 268 272 301 278 271 271 265 260 260 258 258 258 260 256 251 250 249 242 238 239 239 232 229 228 227 228 231 233 232 237 237 234 239 231 228 229 225 225 228 234 231 227 221 214 217 212
254 258 271 271 264 250 273 274 263 252 247 249 254 255 258 259 259 257 252 247 245 246 243 240 235 231 229 228 233 235 232 239 235 236 236 231 240 232 230 230 229 229 228 231 239 235 227 224 221
268 274 292 272 265 263 228 282 298 283 232 239 251 246 245 248 246 249 252 246 243 245 239 236 237 237 232 225 227 232 232 230 231 234 233 236 236 240 233 232 232 232 232 231 233 234 242 233 232
281 356 287 278 274 273 262 263 281 249 256 262 262 248 206 14 190 189 203 214 236 250 243 242 239 236 234 235 227 228 231 232 234 236 237 235 239 237 240 236 234 234 234 235 234 234 231 235 238
271 282 265 248 248 247 246 237 263 253 261 299 193 39 112 117 105 73 14 1 319 295 269 257 248 244 240 234 232 228 230 233 232 233 235 238 238 237 238 240 239 237 236 236 237 236 236 235 237
239 255 268 227 221 247 246 238 239 195 151 97 53 105 88 84 58 25 10 358 348 331 310 294 276 267 257 247 236 229 231 231 233 229 233 236 237 237 239 239 239 239 237 236 238 238 237 236 236
298 283 283 298 276 301 358 224 261 49 60 51 124 120 99 63 33 16 359 349 341 337 325 309 307 297 280 270 255 243 230 234 233 234 230 234 238 242 240 240 241 241 238 237 238 239 240 239 238
2 251 333 303 285 269 261 260 260 148 142 131 129 121 78 46 23 5 350 338 333 328 323 320 310 311 304 286 275 261 248 235 235 234 233 231 233 236 244 239 236 241 242 240 240 240 240 241 240
246 323 286 236 268 268 269 269 271 167 169 153 140 87 346 338 342 340 335 328 320 315 316 315 310 307 310 303 290 279 265 254 241 235 235 235 233 232 236 239 235 232 239 241 240 240 242 243 243
235 241 236 271 275 283 275 267 349 78 121 255 299 304 297 296 313 318 311 309 300 300 300 304 307 306 303 307 304 294 284 268 250 241 238 235 236 233 234 238 236 233 234 245 242 240 241 245 245
269 274 264 249 263 242 253 261 288 289 289 285 297 286 281 282 304 309 302 298 285 283 284 293 297 300 300 303 307 307 297 290 266 246 244 242 237 236 238 237 238 236 239 244 245 240 243 244 246